Skip Page Navigation
NASA JPL Caltech
NASA Logo - Jet Propulsion Laboratory + View the NASA Portal
+ Center for Near-Earth Object Studies
JPL Home Earth Solar System Stars & Galaxies Technology
JPL Solar System Dynamics
BODIES ORBITS EPHEMERIDES TOOLS PHYSICAL DATA DISCOVERY FAQ SITE MAP
IMPORTANT: The SSD Announcement email list is now available. Major changes are coming in the near future, including possible hostname and/or URL changes. To be notified of such changes, subscribe to this email list.

Please visit this page for more details.


JPL Small-Body Database Browser
Search: [ help ]  
214586 (2006 QU67)
Classification: Main-belt Asteroid          SPK-ID: 2214586
Ephemeris | Orbit Diagram | Orbital Elements | Mission Design | Physical Parameters | Discovery Circumstances | Close-Approach Data ]

[ show orbit diagram ]
Orbital Elements at Epoch 2458600.5 (2019-Apr-27.0) TDB
Reference: JPL 10 (heliocentric ecliptic J2000)
 Element Value Uncertainty (1-sigma)   Units 
e .02141931966333486 7.5708e-08  
a 2.871002443872338 3.3301e-08 au
q 2.809507524772821 2.2598e-07 au
i 2.453746090974262 8.885e-06 deg
node 145.6172034525884 0.00016862 deg
peri 168.4868772332229 0.00025765 deg
M 240.4012652666865 0.00019541 deg
tp 2459190.800096927062
(2020-Dec-07.30009693)
0.00096638 TDB
period 1776.841831710026
4.86
3.0914e-05
8.464e-08
d
yr
n .2026066662633316 3.5251e-09 deg/d
Q 2.932497362971855 3.4014e-08 au
  Orbit Determination Parameters
   # obs. used (total)      174  
   data-arc span      7856 days (21.51 yr)  
   first obs. used      1997-11-02  
   last obs. used      2019-05-07  
   planetary ephem.      DE431  
   SB-pert. ephem.      SB431-N16  
   condition code      0  
   norm. resid. RMS      .62787  
   source      ORB  
   producer      Otto Matic  
   solution date      2019-May-30 08:21:28  

Additional Information
 Earth MOID = 1.79449 au 
 Jupiter MOID = 2.1115 au 
 T_jup = 3.296 
[ show covariance matrix ]

Ephemeris | Orbit Diagram | Orbital Elements | Mission Design | Physical Parameters | Discovery Circumstances | Close-Approach Data ]

Physical Parameter Table
Parameter Symbol Value Units Sigma Reference Notes
absolute magnitude H 16.6   n/a MPO433403  

214586 (2006 QU67)          Discovered 2006-Aug-21 by Spacewatch at Kitt Peak
Reference: 20090509/Numbers.arcLast Updated: 2009-05-11

[ show close-approach data ]
Alternate Designations
 2006 QU67 = 2009 CU56 
Ephemeris | Orbit Diagram | Orbital Elements | Mission Design | Physical Parameters | Discovery Circumstances | Close-Approach Data ]
ABOUT SSD CREDITS/AWARDS PRIVACY/COPYRIGHT GLOSSARY LINKS
FirstGov 2019-Dec-05 22:48 UT
(server date/time)  
NASA Home Page
Site Manager:   Ryan S. Park
Webmaster  Alan B. Chamberlin